CDT,Max TemperatureF,Mean TemperatureF,Min TemperatureF,Max Dew PointF,MeanDew PointF,Min DewpointF,Max Humidity, Mean Humidity, Min Humidity, Max Sea Level PressureIn, Mean Sea Level PressureIn, Min Sea Level PressureIn, Max VisibilityMiles, Mean VisibilityMiles, Min VisibilityMiles, Max Wind SpeedMPH, Mean Wind SpeedMPH, Max Gust SpeedMPH,PrecipitationIn, CloudCover, Events, WindDirDegrees
2012-10-1,71,63,55,54,48,43,78,60,36,29.82,29.76,29.71,10,10,9,9,4,,0.00,0,,17
2012-10-2,75,62,48,52,48,44,93,67,41,29.92,29.86,29.80,10,9,8,7,1,,0.00,0,,306
2012-10-3,73,64,55,57,54,52,93,74,49,30.08,29.99,29.92,10,9,6,7,2,,0.00,1,,157
2012-10-4,82,68,55,56,54,52,87,63,39,30.19,30.12,30.07,10,9,7,9,5,,0.00,0,,168
2012-10-5,66,54,39,57,49,39,100,93,68,30.22,30.11,30.05,10,7,1,8,4,,0.41,7,Rain-Thunderstorm,8
2012-10-6,52,44,36,37,35,32,97,75,50,30.27,30.24,30.20,10,10,8,6,1,,0.00,5,Rain,354
2012-10-7,55,45,35,41,35,30,92,68,40,30.30,30.24,30.18,10,10,9,5,2,,0.00,3,,321
2012-10-8,60,48,36,40,37,35,97,70,44,30.26,30.17,30.09,10,10,10,8,3,,0.00,1,,174
2012-10-9,66,52,39,52,45,37,96,73,43,30.09,30.02,29.93,10,9,6,15,5,18,0.00,4,Rain,181
2012-10-10,64,54,44,54,39,32,88,59,32,30.29,30.18,30.04,10,10,7,8,3,,0.00,3,Rain,85
2012-10-11,59,52,48,52,45,35,90,75,53,30.25,30.18,30.12,10,10,7,8,5,,0.02,7,Rain,115
2012-10-12,57,55,53,57,55,51,100,98,86,30.29,30.22,30.14,9,4,0,10,5,16,1.12,8,Fog-Rain-Thunderstorm,114
2012-10-13,75,65,55,64,60,55,100,88,68,30.18,30.06,29.81,9,4,0,16,7,28,0.01,6,Fog-Rain,147
2012-10-14,73,64,57,66,56,46,100,75,47,30.02,29.86,29.71,10,9,2,14,9,28,0.81,3,Rain-Thunderstorm,218
2012-10-15,78,63,48,52,47,44,93,63,30,30.05,29.98,29.91,10,10,7,6,1,,0.00,0,,168
2012-10-16,,,,,,,,,,29.93,29.81,29.70,,,,,,,0.00,,,-1
2012-10-17,71,62,54,61,58,48,94,85,68,29.70,29.58,29.48,10,8,2,15,7,32,0.26,6,Rain-Thunderstorm,216
2012-10-18,63,54,46,46,32,24,86,48,23,29.81,29.75,29.70,10,10,7,12,4,28,0.01,1,,256
2012-10-19,59,52,44,40,36,31,85,53,36,29.87,29.77,29.69,10,10,8,14,6,24,0.00,5,,288
2012-10-20,75,56,39,44,41,37,97,64,32,29.93,29.86,29.81,10,10,8,9,3,,0.00,0,,142
2012-10-21,82,67,53,66,57,45,87,71,56,29.91,29.89,29.85,10,9,7,10,5,20,0.00,2,,152
2012-10-22,82,74,66,63,61,56,81,67,47,29.96,29.93,29.89,10,9,8,14,9,24,0.00,2,,180
2012-10-23,84,72,62,59,55,48,90,59,29,29.97,29.92,29.88,10,10,5,12,6,24,0.03,2,Rain-Thunderstorm,170
2012-10-24,82,72,62,62,60,59,93,71,47,29.99,29.94,29.86,10,9,7,12,7,20,0.00,1,,171
2012-10-25,78,62,45,62,53,43,100,84,52,30.13,29.95,29.81,10,8,1,14,8,28,0.24,6,Rain,247
2012-10-26,53,48,37,38,32,26,76,60,35,30.31,30.23,30.16,10,10,10,10,5,17,0.00,4,,353
2012-10-27,54,42,30,29,26,22,89,60,29,30.32,30.25,30.17,10,10,9,9,2,,0.00,0,,336
2012-10-28,55,42,28,30,26,21,92,60,27,30.28,30.24,30.19,10,10,6,9,3,,0.00,0,,360
2012-10-29,55,42,30,34,26,21,92,58,29,30.34,30.24,30.12,10,10,6,6,0,,0.00,1,,50
2012-10-30,63,48,33,40,34,30,100,76,30,30.12,30.04,29.94,10,7,0,5,0,,0.00,2,Fog,270
2012-10-31,66,52,39,39,34,30,82,53,31,30.03,29.99,29.96,10,10,9,7,1,,0.00,1,,307